STARLINK-1484, 45756

Orbit data source: Space-Track

STARLINK-1484, 45756 is a payload satellite owned by SpaceX/Seattle (US) in LEO that was launched on Sat, 13 Jun 2020 UTC via an FALCON 9 launch vehicle from the Air Force Eastern Test Range (AFETR). Payload-class satellites include a variety of spacecraft equipped with specific instruments for various scientific and technological missions. These include communications satellites like Starlink; space stations such as the ISS; scientific satellites like the Hubble; Earth observation satellites from companies like Planet Labs, Umbra, and HawkEye 360; GPS; miniature CubeSats for education and research; and military/defense satellites.

Loading next visibility...
Identifier
45756, 2020-038AC
Orbit
LEO
Country
Flag of USUS
Related business
Manufacturer
SpaceX/Seattle
Mission
Partially operational Commercial Communications
Bus & Motor
STARLINK, Unknown motor
Mass
260 kg wet, ~248 kg dry
Launch date (UTC)
2020-06-13 (5 years ago)
Launch vehicle
FALCON 9
Launch site
Air Force Eastern Test Range (AFETR)
Object type
Payload
Rocket body
Debris
Shape & HBR
Box + 1 Pan, 4.4 m
Radar Cross Section
13.562 m², Large (>1 m²)

Expand to show TLE details & history
Last TLE update: 10 hours ago

TLE from 10 hours ago
0 STARLINK-1484
1 45756U 20038AC  25258.58341435  .00075128  00000-0  12025-2 0  9990
2 45756  53.0173 204.8081 0005865  67.7513 182.8051 15.52462561  5865
Epoch: 2025-09-15T14:00Z
TLE epoch observation values (Epoch: 2025-09-15T14:00:06.999Z)
Latitude
-49.04839°
Longitude
-120.35476°
Altitude
430.362 km
Speed
7.651 km/s
True Right ascension
05h 37m 50s
True Declination
-48° 52' 12"
Sunlit
Object was in daylight at epoch
Visualization orbit readout
Latitude
Unknown
Longitude
Unknown
Altitude
Unknown
Speed
Unknown
Apparent Right ascension
Unknown
Apparent Declination
Unknown
Sunlit
N/A
Visualization observer readout
Local Sidereal Time
16:15:10
Azimuth
Unknown
Elevation
Unknown
Doppler factor
Unknown
Orbital elements
Apogee altitude
413.802 km
Perigee altitude
405.84 km
Semi-major axis
6,787.958 km
Eccentricity
0.00059
Inclination
53.0173°
RAAN
204.8081°
Arg. of periapsis
67.7513°
True anomaly
182.80181°
Mean anomaly
182.8051°
Eccentric anomaly
182.80346°
Mean motion
3.88092 °/min
Orbital period
92.76 mins
BSTAR
0.0012025
Loading maneuver chart data...
Computing Atmospheric mass density...

Documentation

Showing up to 5 results
|